Flag for Germany Weather past 2 weeks in Leonberg, Baden-Württemberg, Germany

Now
50 °F

Passing clouds.


Feels Like: 45 °F
Forecast: 42 / 49 °F
Wind: 14 mph from Southwest

Location: Stuttgart-Echterdingen

Current Time: Mar 29, 2015 at 11:53:06 PM

Latest Report: Mar 29, 2015 at 11:20 PM


Visibility: N/A

Pressure: 29.56 "Hg

Humidity: 88%

Dew point: 46 °F

Location of LeonbergLocation

Historic Weather in Leonberg — Graph

°F

Leonberg temperature yesterday

Maximum temperature yesterday: 55 °F (at 2:20 PM)
Minimum temperature yesterday: 34 °F (at 1:20 AM)
Average temperature yesterday: 45 °F

Past Weeks' High & Low Weather Summary

 TemperatureHumidityPressure
High66 °F (Mar 17, 2:50 PM)100% (Mar 15, 5:50 AM)30.36 "Hg (Mar 15, 5:50 AM)
Low30 °F (Mar 24, 4:50 AM)29% (Mar 16, 3:20 PM)29.56 "Hg (Mar 25, 1:50 PM)
Average45 °F69%30.02 "Hg
* Reported Mar 14 9:20 PM — Mar 29 10:20 PM, Leonberg, Weather by CustomWeather, © 2015

Note: Actual official high and low records may vary slightly from our data, if they occured in-between our weather recording intervals... More about our weather records

Advertising

Leonberg weather history for previous 24 hours

 ConditionsComfort  
Time TempWeatherWind HumidityBarometerVisibility
10:20 PM
Sun, Mar 29
50 °FLight rain. Passing clouds.15 mph88%29.59 "HgN/A
9:50 PM50 °FLight rain. Passing clouds.15 mph88%29.59 "HgN/A
9:20 PM50 °FLight rain. Passing clouds.16 mph88%29.62 "HgN/A
8:50 PM50 °FLight rain. Passing clouds.16 mph88%29.62 "HgN/A
8:20 PM50 °FLight rain. Partly sunny.18 mph88%29.62 "HgN/A
7:50 PM52 °FLight rain. Partly sunny.18 mph82%29.62 "HgN/A
7:20 PM52 °FLight rain. Partly sunny.17 mph77%29.62 "HgN/A
6:50 PM52 °FLight rain. Partly sunny.15 mph77%29.65 "HgN/A
6:20 PM52 °FLight rain. Broken clouds.17 mph77%29.65 "HgN/A
5:50 PM52 °FBroken clouds.20 mph72%29.65 "HgN/A
5:20 PM52 °FLight rain. Partly sunny.21 mph77%29.68 "HgN/A
4:50 PM52 °FLight rain. Broken clouds.21 mph72%29.68 "HgN/A
4:20 PM52 °FBroken clouds.22 mph72%29.71 "HgN/A
3:50 PM52 °FLight rain. Broken clouds.20 mph77%29.71 "HgN/A
3:20 PM52 °FLight rain. Broken clouds.16 mph72%29.74 "HgN/A
2:50 PM52 °FLight rain. Broken clouds.20 mph72%29.77 "HgN/A
2:20 PM52 °FLight rain. Broken clouds.21 mph72%29.77 "HgN/A
1:50 PM52 °FPartly sunny.20 mph67%29.77 "HgN/A
1:20 PM52 °FPartly sunny.18 mph72%29.80 "HgN/A
12:50 PM52 °FPartly sunny.17 mph67%29.80 "HgN/A
12:20 PM54 °FBroken clouds.22 mph67%29.80 "HgN/A
11:50 AM52 °FBroken clouds.21 mph67%29.80 "HgN/A
11:20 AM52 °FPartly sunny.21 mph72%29.83 "HgN/A
10:50 AM52 °FPartly sunny.13 mph72%29.83 "HgN/A
10:20 AM52 °FBroken clouds.14 mph77%29.83 "HgN/A
9:50 AM52 °FPartly sunny.16 mph77%29.86 "HgN/A
9:20 AM52 °FBroken clouds.15 mph77%29.86 "HgN/A
8:50 AM50 °FBroken clouds.14 mph82%29.89 "HgN/A
8:20 AM50 °FPartly sunny.12 mph82%29.89 "HgN/A
7:50 AM50 °FPassing clouds.13 mph82%29.89 "HgN/A
7:20 AM50 °FPassing clouds.13 mph82%29.89 "HgN/A
6:50 AM50 °FPartly cloudy.12 mph82%29.89 "HgN/A
6:20 AM50 °FPassing clouds.10 mph82%29.89 "HgN/A
5:50 AM50 °FPassing clouds.12 mph82%29.92 "HgN/A
5:20 AM50 °FLight rain. Partly cloudy.15 mph82%29.92 "HgN/A
4:50 AM48 °FPartly cloudy.12 mph87%29.92 "HgN/A
4:20 AM50 °FLight rain. Partly cloudy.7 mph82%29.92 "HgN/A
3:50 AM48 °FPassing clouds.8 mph87%29.95 "HgN/A
3:20 AM48 °FPassing clouds.6 mph87%29.98 "HgN/A
1:50 AM48 °FPartly cloudy.8 mph82%29.98 "HgN/A
1:20 AM48 °FPassing clouds.7 mph82%29.98 "HgN/A
12:50 AM48 °FPassing clouds.7 mph82%29.98 "HgN/A
12:20 AM48 °FOvercast.8 mph82%30.01 "HgN/A
11:50 PM
Sat, Mar 28
48 °FPassing clouds.8 mph82%30.01 "HgN/A
11:20 PM46 °FPassing clouds.8 mph87%30.01 "HgN/A
Weather by CustomWeather, © 2015

See weather overviewHow to use our weather pages